Location: Berlijn
(52.5200°N, 13.4050°E)
Time: 06:00:28
(UTC+02:00)

Envisat - Pass Details

Date: 23 September 2021
Orbit: 764 x 766 km, 98.2° (Epoch: 23 October)

Event Time Altitude Azimuth Distance (km) Brightness Sun altitude
Rises 05:29:25 0° 21° (NNE) 3,246 6.9 -13.5°
Reaches altitude 10° 05:32:03 10° 33° (NNE) 2,314 6.3 -13.1°
Maximum altitude 05:36:27 29° 93° (E) 1,390 5.2 -12.5°
Drops below altitude 10° 05:40:49 10° 153° (SSE) 2,298 5.6 -11.8°
Sets 05:43:24 0° 164° (SSE) 3,219 6.2 -11.5°
